Weather History for Seoul Kimpo Airport, South Korea

Change the Weather History Date:

Tuesday, February 19, 2013

  Actual Average Record
Temperature  
Mean Temperature 28 °F -  
Max Temperature 32 °F 45 °F 60 °F (2004)
Min Temperature 21 °F 26 °F 8 °F (2012)
Degree Days  
Heating Degree Days 38    
Moisture  
Dew Point 5 °F    
Average Humidity 41    
Maximum Humidity 51    
Minimum Humidity 23    
Precipitation  
Precipitation 0.00 in - - ()
Sea Level Pressure  
Sea Level Pressure 30.27 in    
Wind  
Wind Speed 9 mph ()    
Max Wind Speed 16 mph    
Max Gust Speed -    
Averages and records for this station are not official NWS values.
T = Trace of Precipitation, MM = Missing Value Source: Averaged Metar Reports

Daily Weather History Graph

Daily Weather History Graph

Search for Another Location

Airport:

Trip Planner

Search our weather history database for the weather conditions in past years. The results will help you decide how hot, cold, wet, or windy it might be!

Date:

Astronomy

Feb. 19, 2013 Rise Set
Actual Time 7:17 AM KST 6:16 PM KST
Civil Twilight 6:51 AM KST 6:42 PM KST
Nautical Twilight 6:20 AM KST 7:13 PM KST
Astronomical Twilight 5:50 AM KST 7:43 PM KST
Moon 12:23 PM KST (2/19) 2:15 AM KST (2/19)
Length of Visible Light 11h 51m
Length of Day
10h 58m
Waxing Gibbous, 62% of the Moon is Illuminated
Feb 19
Waxing Gibbous
Feb 26
Full
Mar 5
Last Quarter
Mar 12
New
Mar 20
First Quarter

Hourly Weather History & Observations

Time (KST) Temp. Windchill Dew Point Humidity Pressure Visibility Wind Dir Wind Speed Gust Speed Precip Events Conditions
12:00 AM 26.6 °F 15.7 °F 6.8 °F 43% 30.18 in - NNW 12.7 mph - N/A   Clear
1:00 AM 26.6 °F 16.8 °F 8.6 °F 47% 30.21 in - NNW 10.4 mph - N/A   Clear
2:00 AM 26.6 °F 18.2 °F 10.4 °F 51% 30.21 in - NW 8.1 mph - N/A   Clear
3:00 AM 24.8 °F 15.3 °F 8.6 °F 50% 30.21 in - NNW 9.2 mph - N/A   Clear
4:00 AM 24.8 °F 14.6 °F 8.6 °F 50% 30.21 in - NNW 10.4 mph - N/A   Clear
5:00 AM 24.8 °F 15.3 °F 6.8 °F 46% 30.24 in - NNW 9.2 mph - N/A   Clear
6:00 AM 24.8 °F 15.3 °F 6.8 °F 46% 30.24 in - NW 9.2 mph - N/A   Clear
7:00 AM 24.8 °F 17.9 °F 8.6 °F 50% 30.27 in - NNW 5.8 mph - N/A   Clear
8:00 AM 23.0 °F 14.7 °F 6.8 °F 50% 30.27 in - NW 6.9 mph - N/A   Clear
9:00 AM 26.6 °F 19.1 °F 1.4 °F 34% 30.30 in - NNW 6.9 mph - N/A   Clear
10:00 AM 28.4 °F 21.2 °F -0.4 °F 29% 30.30 in - NW 6.9 mph - N/A   Clear
11:00 AM 30.2 °F 22.6 °F -4.0 °F 23% 30.30 in - NW 8.1 mph - N/A   Clear
12:00 PM 30.2 °F 20.8 °F 1.4 °F 29% 30.30 in - North 11.5 mph - N/A   Clear
1:00 PM 32.0 °F 21.2 °F 3.2 °F 30% 30.30 in - NNW 16.1 mph - N/A   Clear
2:00 PM 32.0 °F 22.1 °F 6.8 °F 35% 30.27 in - NW 13.8 mph - N/A   Clear
3:00 PM 32.0 °F 22.1 °F 3.2 °F 30% 30.27 in - NW 13.8 mph - N/A   Clear
4:00 PM 32.0 °F 21.6 °F 6.8 °F 35% 30.27 in - West 15.0 mph - N/A   Clear
5:00 PM 32.0 °F 23.0 °F 6.8 °F 35% 30.27 in - West 11.5 mph - N/A   Clear
6:00 PM 28.4 °F 17.5 °F 3.2 °F 34% 30.27 in - WNW 13.8 mph - N/A   Clear
7:00 PM 26.6 °F 15.7 °F 3.2 °F 37% 30.30 in - WNW 12.7 mph - N/A   Clear
8:00 PM 24.8 °F 16.1 °F 6.8 °F 46% 30.30 in - WNW 8.1 mph - N/A   Clear
9:00 PM 23.0 °F 13.1 °F 6.8 °F 50% 30.33 in - NW 9.2 mph - N/A   Clear
10:00 PM 23.0 °F 15.8 °F 6.8 °F 50% 30.36 in - NW 5.8 mph - N/A   Clear
11:00 PM 21.2 °F 8.9 °F 3.2 °F 46% 30.36 in - NNW 12.7 mph - N/A   Clear